Regional Weather Roundup
Issued by NWS

Home | Current Version | Previous Version | Graphics & Text | Print | Product List | Glossary On
Versions: 1 2 3 4 5 6 7 8 9 10 11 12 13 14 15 16 17 18 19 20 21 22 23 24 25 26 27 28 29 30 31 32 33 34 35 36 37 38 39 40 41 42 43 44 45 46 47 48 49 50
000
ASUS44 KMEG 200910
RWRTN
TENNESSEE HOURLY STATE WEATHER ROUNDUP
NATIONAL WEATHER SERVICE MEMPHIS TN
400 AM CDT SAT SEP 20 2014

TNZ002-004-019-021-049-052-054-088>092-201000-
WEST TENNESSEE

CITY           SKY/WX    TMP DP  RH WIND       PRES   REMARKS
MEMPHIS INTL   CLEAR     74  65  73 SE7       30.01S
NWS MEMPHIS      N/A     68 N/A N/A MISG        N/A
JACKSON        CLEAR     68  65  90 CALM      30.03F
DYERSBURG      CLEAR     64  55  72 CALM      30.03S
UNION CITY       N/A     61  59  94 CALM      30.02S VSB 1/2
PARIS          CLEAR     61  59  94 CALM      30.04S
HUNTINGDON     PTCLDY    62  61  97 CALM      30.04S
LEXINGTON      PTCLDY    66  64  94 SE3       30.04S
SAVANNAH       CLEAR     68  68 100 SE5       30.05S
$$

TNZ008-025-027-028-033-062-065-066-201000-
NORTH MIDDLE TENNESSEE

CITY           SKY/WX    TMP DP  RH WIND       PRES   REMARKS
NASHVILLE      CLEAR     70  63  78 SE6       30.08S
DICKSON        CLEAR     68  63  83 S6        30.06F
PORTLAND       CLEAR     66  63  88 S8        30.07S
CLARKSVILLE    PTCLDY    64  62  93 CALM      30.05R
SMYRNA         PTCLDY    69  63  81 CALM      30.09S
MURFREESBORO   CLEAR     69  62  78 SE3       30.08
COOKEVILLE     MOCLDY    66  63  88 S5        30.12R
LIVINGSTON     CLEAR     65  59  81 S6        30.12
GALLATIN       PTCLDY    66  66 100 CALM      30.09S
CROSSVILLE     CLEAR     64  58  80 CALM      30.16F
$$

TNZ061-075-076-078-094-096-097-201000-
SOUTH MIDDLE TENNESSEE

CITY           SKY/WX    TMP DP  RH WIND       PRES   REMARKS
LEWISBURG      CLEAR     68  63  84 S5        30.08F
FAYETTEVILLE   MOCLDY    66  63  88 S6        30.11R
TULLAHOMA      CLEAR     66  61  82 SE5       30.12S
WINCHESTER     CLEAR     68  63  83 SE15      30.11S
MCMINNVILLE    PTCLDY    70  63  78 S5        30.11S
COLUMBIA       CLEAR     68  68 100 CALM      30.06S
SHELBYVILLE    MOCLDY    68  64  88 SE5       30.11S
$$

TNZ017-018-042-046-047-201000-
NORTHEAST TENNESSEE

CITY           SKY/WX    TMP DP  RH WIND       PRES   REMARKS
TRI CITIES     CLEAR     56  53  90 CALM      30.19S
ELIZABETHTON   SUNNY     63  55  77 E5        30.20S
$$

TNZ012-013-036-069-073-074-201000-
CENTRAL EAST TENNESSEE

CITY           SKY/WX    TMP DP  RH WIND       PRES   REMARKS
KNOXVILLE      CLEAR     64  61  90 NE7       30.13S
OAK RIDGE      CLEAR     63  61  93 CALM      30.16S
GATLINBURG     SUNNY     57  57 100 CALM      30.14S
MORRISTOWN     PTSUNNY   63  57  82 E5        30.16F
$$

TNZ083-085-099-201000-
SOUTHEAST TENNESSEE

CITY           SKY/WX    TMP DP  RH WIND       PRES   REMARKS
CHATTANOOGA    CLEAR     66  61  84 CALM      30.13F
$$

SKY/WX REPORTED AS FAIR MEANS FEW OR NO CLOUDS BELOW
12 THOUSAND FEET.




USA.gov is the U.S. government's official web portal to all federal, state and local government web resources and services.